Regional Weather Roundup
Issued by NWS

Home | Current Version | Previous Version | Graphics & Text | Print | Product List | Glossary On
Versions: 1 2 3 4 5 6 7 8 9 10 11 12 13 14 15 16 17 18 19 20 21 22 23 24 25 26 27 28 29 30 31 32 33 34 35 36 37 38 39 40 41 42 43 44 45 46 47 48 49 50
000
ASUS43 KIND 211009
RWRIN

WEATHER ROUNDUP FOR INDIANA
NATIONAL WEATHER SERVICE INDIANAPOLIS IN
500 AM EST SUN DEC 21 2014

NOTE: "FAIR" INDICATES FEW OR NO CLOUDS BELOW 12,000 FEET WITH NO
SIGNIFICANT WEATHER AND/OR OBSTRUCTIONS TO VISIBILITY.

* - STATION DOES NOT REPORT WEATHER SUCH AS PRECIPITATION OR FOG.

+ - STATION NOT QUALITY CONTROLLED BY THE NATIONAL WEATHER SERVICE.
    USE DATA WITH CAUTION...ESPECIALLY DEWPOINT AND RELATIVE
    HUMIDITY OBSERVATIONS.

INZ001>003-010>013-019-020-211100-
NORTHWEST INDIANA

CITY           SKY/WX    TMP DP  RH WIND       PRES   REMARKS
KNOX *+        CLOUDY    31  24  75 S6        30.26S WCI  25
LA PORTE +     CLOUDY    32  29  89 S3        30.26S FOG
MICHIGAN CITY+ CLOUDY    32  23  69 S5        30.26S WCI  27
MONTICELLO +   CLOUDY    31  26  83 S5        30.26F WCI  26
RENSSELAER +   CLOUDY    32  30  93 S6        30.26S WCI  26
VALPARAISO     CLOUDY    30  26  85 S6        30.26S WCI  24

$$

LMZ046-743>745-211100-
SOUTHERN LAKE MICHIGAN

STATION/POSITION TIME  TEMP WIND        PRES
                       AIR  DIR/SP/G
                 (UTC) (F)  (DEG/KT/KT) (MB)

$$

INZ004-005-014>016-021>024-211100-
NORTH CENTRAL INDIANA

CITY           SKY/WX    TMP DP  RH WIND       PRES   REMARKS
GOSHEN         CLOUDY    30  27  88 S5        30.27S FOG     WCI  25
LOGANSPORT +   CLOUDY    30  27  86 S5        30.28F FOG     WCI  25
PERU/GRISSOM   CLOUDY    30  30 100 S6        30.27S WCI  24
ROCHESTER +    CLOUDY    32  30  93 S3        30.27F FOG
SOUTH BEND     CLOUDY    32  26  78 S7        30.26F WCI  26
WARSAW +       CLOUDY    30  28  93 CALM      30.27S FOG

$$

INZ006>009-017-018-025>027-211100-
NORTHEAST INDIANA

CITY           SKY/WX    TMP DP  RH WIND       PRES   REMARKS
ANGOLA *+      CLOUDY    28  27  93 CALM      30.26S
AUBURN +       CLOUDY    30  28  93 CALM      30.28S FOG
FORT WAYNE     CLOUDY    30  26  85 S3        30.29S
HUNTINGTON +   CLOUDY    29  26  89 CALM      30.28S

$$

INZ028-029-035-036-043>045-051>053-211100-
WEST CENTRAL INDIANA

CITY           SKY/WX    TMP DP  RH WIND       PRES   REMARKS
GREENCASTLE +  CLEAR     23  19  86 CALM      30.28S FOG
LAFAYETTE      CLOUDY    28  24  85 SE6       30.27F WCI  22
TERRE HAUTE    PTCLDY    22  19  89 E3        30.28F

$$

INZ030>032-037>040-046>048-054>057-064-065-211100-
CENTRAL INDIANA

CITY           SKY/WX    TMP DP  RH WIND       PRES   REMARKS
CP ATTERBURY + CLEAR     19  18  93 MISG      30.30S
FRANKFORT +    CLOUDY    28  28 100 CALM      30.28F FOG
GREENWOOD *+   CLEAR     23  19  86 CALM      30.28F
INDIANAPOLIS   CLEAR     23  21  92 CALM      30.27F FOG
-EAGLE CREEK   CLEAR     21  18  88 CALM      30.28S FOG
KOKOMO *+      CLOUDY    30  27  86 S5        30.28S WCI  25
MARION +       CLOUDY    28  26  92 CALM      30.28F FOG
MT COMFORT *+  CLEAR     23 N/A N/A SE3       30.28F
SHELBYVILLE    CLEAR     23  19  85 E5        30.28F FOG     WCI  17
ZIONSVILLE +   CLEAR     23  20  89 CALM      30.28S FOG

$$

INZ033-034-041-042-049-050-058-059-211100-
EAST CENTRAL INDIANA

CITY           SKY/WX    TMP DP  RH WIND       PRES   REMARKS
MUNCIE         CLOUDY    24  21  88 CALM      30.28F FOG

$$

INZ060-061-067>069-081>083-085>088-211100-
SOUTHWEST INDIANA

CITY           SKY/WX    TMP DP  RH WIND       PRES   REMARKS
EVANSVILLE     CLEAR     28  24  85 NE5       30.28F FOG     WCI  23
HUNTINGBURG *+ CLEAR     23  19  86 NE3       30.28F
WASHINGTON +   CLEAR     25  22  88 CALM      30.28S FOG

$$

INZ062-063-066-070>080-084-089>092-211100-
SOUTH CENTRAL AND SOUTHEAST INDIANA

CITY           SKY/WX    TMP DP  RH WIND       PRES   REMARKS
BLOOMINGTON    CLEAR     21  18  88 CALM      30.27F
NORTH VERNON + CLOUDY    32  27  80 CALM      30.30F

$$




USA.gov is the U.S. government's official web portal to all federal, state and local government web resources and services.